Regional Weather Roundup
Issued by NWS Charleston, SC

Current Version | Previous Version | Graphics & Text | Print | Product List | Glossary On
Versions: 1 2 3 4 5 6 7 8 9 10 11 12 13 14 15 16 17 18 19 20 21 22 23 24 25 26 27 28 29 30 31 32 33 34 35 36 37 38 39 40 41 42 43 44 45 46 47 48 49 50
205 ASUS42 KCHS 231712 RWRCHS REGIONAL WEATHER ROUNDUP NATIONAL WEATHER SERVICE CHARLESTON SC 100 PM EDT WED AUG 23 2017 NOTE: "FAIR" INDICATES FEW OR NO CLOUDS BELOW 12,000 FEET WITH NO SIGNIFICANT WEATHER AND/OR OBSTRUCTIONS TO VISIBILITY. NOT ALL STATIONS ARE QUALITY CONTROLLED. USE DATA WITH CAUTION... ESPECIALLY DEWPOINT OBSERVATIONS. SCZ027-030-031-034>040-042>050-231800- ...SOUTHEAST SOUTH CAROLINA... CITY SKY/WX TMP DP RH WIND PRES REMARKS N CHARLESTON MOSUNNY 90 76 63 W8 29.91F HX 101 WATERFRONT PRK N/A 88 75 65 SW5 29.77F HX 97 JOHNS ISLAND FAIR 93 77 59 S5 29.92F HX 107 PINOPOLIS N/A 88 77 70 CALM 29.85F HX 100 MONCKS CORNER FAIR 90 75 62 W3 29.91F HX 100 SUMMERVILLE FAIR 90 73 58 SW3 29.92F HX 98 BEAUFORT MCAS MOSUNNY 91 76 61 W7 29.92F HX 103 BEAUFORT ARPT FAIR 90 75 62 SW6 29.92F HX 100 HILTON HEAD IS MOSUNNY 88 77 70 E6 29.94F HX 100 WALTERBORO MOSUNNY 90 73 58 SW7 29.93F HX 98 ALLENDALE NOT AVBL ...SOUTHERN MIDLANDS AND PEE DEE... CITY SKY/WX TMP DP RH WIND PRES REMARKS GEORGETOWN FAIR 88 77 70 W5 29.93F HX 100 KINGSTREE FAIR 90 75 62 SW8 29.90F HX 100 ORANGEBURG MOSUNNY 93 70 46 SW10 29.90F HX 99 BARNWELL FAIR 95 73 49 W9 29.91F HX 105 AIKEN FAIR 90 72 55 SW10 29.95F HX 96 MANNING FAIR 88 72 58 CALM 29.90F HX 94 COLUMBIA MOSUNNY 94 71 47 SW12 29.88F HX 101 SUMTER MOSUNNY 94 70 45 SW13 29.87F HX 100 FLORENCE MOSUNNY 91 73 55 SW8 29.89F HX 99 MYRTLE BEACH MOSUNNY 90 75 62 SW12 29.91F HX 100 N MYRTLE BEACH MOSUNNY 87 76 69 S14 29.90F HX 97 $$ GAZ063-065-086>088-099>101-113>116-118-119-134>141-150-231800- ...SOUTHEAST GEORGIA... CITY SKY/WX TMP DP RH WIND PRES REMARKS SAVANNAH ARPT MOSUNNY 92 75 57 W8 29.93F HX 103 HUNTER AAF NOT AVBL FORT STEWART PTSUNNY 92 73 54 NW3 29.91F HX 101 STATESBORO MOSUNNY 92 69 45 SW6 29.93F HX 97 SYLVANIA MOSUNNY 91 77 63 CALM 29.93F HX 105 CLAXTON FAIR 93 74 53 SW6 29.93F HX 103 ...CSRA...CENTRAL AND FAR SOUTHEAST GEORGIA... CITY SKY/WX TMP DP RH WIND PRES REMARKS THOMSON MOSUNNY 90 73 56 NW8 29.97F HX 98 AUGUSTA-BUSH MOSUNNY 93 74 53 SW12 29.90F HX 103 AUGUSTA-DANIEL MOSUNNY 93 69 45 VRB5 29.93F HX 98 SWAINSBORO FAIR 91 72 52 W5 29.93F HX 98 VIDALIA PTSUNNY 95 73 49 SW8 29.94F HX 105 EASTMAN PTSUNNY 92 59 32 W6 29.97F HX 91 HAZLEHURST FAIR 94 59 31 NW5 29.94F HX 93 ALMA PTSUNNY 93 72 50 VRB5 29.94F HX 101 WAYCROSS MOSUNNY 92 70 48 CALM 29.94F HX 97 JESUP FAIR 93 70 46 N5 29.94F HX 99 BAXLEY FAIR 90 70 51 W3 29.94F HX 95 BRUNSWICK MOSUNNY 91 72 52 NW7 29.95F HX 98 SAINT SIMONS SUNNY 91 74 57 NW6 29.95F HX 100 $$ SCZ027-028-034-036>038-045-046-048>050-GAZ119-141-231800- ...LAKE AND SUPPLEMENTAL COASTAL OBSERVATIONS... STATION/POSITION TIME TEMP WIND PRES WAVE SWELL AIR SEA DIR/SP/G HT/PER HT/PER/DIR (UTC) (F) (DEG/KT/KT) (MB) (FT/S) (FT/S/D) WINYAH BAY 1545 86 240/ 8 1013.0 LAKE MURRAY 1620 87 200/ 8/ 12 1011.5 ACE BASIN NERRS 1545 89 280/ 1 1014.0 FORT PULASKI 1642 88 86 270/ 2/ 3 1014.1F SAPELO ISLAND 1600 90 CALM 1014.0 $$ ANZ835-935-AMZ111-154-330-350-352-354-370-450-454-472-231800- ...C-MAN AND BUOY OBSERVATIONS... STATION/POSITION TIME TEMP WIND PRES WAVE SWELL AIR SEA DIR/SP/G HT/PER HT/PER/DIR (UTC) (F) (DEG/KT/KT) (MB) (FT/S) (FT/S/D) BUOY 41004 1650 83 84 230/ 8/ 10 1013.5F 4/ 9 3/120/ 9 BUOY 41008 1550 83 85 250/ 2/ 4 1014.3 3/10 3/120/10 FOLLY BEACH CMAN 1600 86 200/ 7/ 9 1014.5F CAPERS NEARSHORE 1608 83 86 230/ 8/ 12 1013.7F FRIPP NEARSHORE 1608 85 240/ 6/ 8 1013.7F STATION/POSITION TIME TEMP WIND PRES WAVE SWELL AIR SEA DIR/SP/G HT/PER HT/PER/DIR (UTC) (F) (DEG/KT/KT) (MB) (FT/S) (FT/S/D) 5E ST. MARYS GA NOT AVBL FRYING PAN BUOY 1650 82 84 220/ 14/ 16 1013.3F 4/ 9 2/130/ 9 BUOY 41025 1650 83 85 220/ 16/ 17 1012.3F 4/ 5 2/120/ 9 CAPE LOOKOUT NC 1600 83 240/ 11/ 15 1012.5F BUOY 41002 1650 83 85 270/ 6/ 8 1015.3F 3/ 9 3/110/ 9 BUOY 41010 1650 84 85 170/ 8/ 12 1014.6F 3/ 9 3/100/ 9 ST AUGUSTINE FL 1700 83 83 90/ 5/ 6 1015.3F $$

USA.gov is the U.S. government's official web portal to all federal, state and local government web resources and services.